Regional Weather Roundup
Issued by NWS Portland, ME

Current Version | Previous Version | Text Only | Print | Product List | Glossary Off
Versions: 1 2 3 4 5 6 7 8 9 10 11 12 13 14 15 16 17 18 19 20 21 22 23 24 25 26 27 28 29 30 31 32 33 34 35 36 37 38 39 40 41 42 43 44 45 46 47 48 49 50
000 ASUS41 KGYX 221510 RWRGYX WEATHER ROUNDUP FOR MAINE AND NEW HAMPSHIRE NATIONAL WEATHER SERVICE GRAY ME 1100 AM EDT THU JUN 22 2017 MEZ002-005-006-010-012-015-018-020-021-024-026-027-029-221600- MAINE CITY SKY/WX TMP DP RH WIND PRES REMARKS PORTLAND MOSUNNY 76 49 38 SW9 29.92F SANFORD SUNNY 76 50 40 W8 29.93F BAR HARBOR MOSUNNY 73 50 44 VRB7G17 29.88F WISCASSET MOSUNNY 76 49 38 SW8 29.91F ROCKLAND MOSUNNY 74 53 48 W15 29.89F FRYEBURG SUNNY 76 52 43 VRB3G16 29.92F LEWISTONAUBURN MOSUNNY 73 51 46 W9 29.92F AUGUSTA MOSUNNY 72 50 45 VRB7 29.91F WATERVILLE MOSUNNY 72 54 53 W9 29.88F BANGOR PTSUNNY 71 51 49 W9 29.88S GREENVILLE N/A 68 50 52 MISG 29.86F MILLINOCKET MOSUNNY 71 47 42 W12G22 29.84F HOULTON SUNNY 71 46 40 W20G26 29.77F PRESQUE ISLE SUNNY 68 46 45 W21G26 29.78S FRENCHVILLE MOSUNNY 65 45 48 W22G31 29.76R CARIBOU MOSUNNY 69 47 45 W10G21 29.75F $$ NHZ002-005-008-009-011-012-014-221600- NEW HAMPSHIRE CITY SKY/WX TMP DP RH WIND PRES REMARKS PORTSMOUTH MOSUNNY 76 52 43 W8 29.92F ROCHESTER SUNNY 76 51 41 VRB5 29.93F NASHUA SUNNY 75 54 47 VRB3 29.96F MANCHESTER MOSUNNY 77 47 34 W5 29.94F CONCORD MOSUNNY 75 53 46 VRB7 29.95F LACONIA SUNNY N/A N/A N/A W8G18 29.95F PLYMOUTH PTSUNNY 72 49 42 W6 29.95S BERLIN MOSUNNY 71 48 43 W8 29.94F WHITEFIELD PTSUNNY 70 52 52 VRB6 29.95F JAFFREY SUNNY 73 52 47 W8 29.99F KEENE PTSUNNY 73 54 51 W7 29.98F LEBANON PTSUNNY 74 53 48 VRB6 29.95F MT WASHINGTON PTSUNNY 45 41 87 W31 N/A $$ VTZ005-007-008-221600- VERMONT CITY SKY/WX TMP DP RH WIND PRES REMARKS ST JOHNSBURY N/A 72 50 45 MISG 29.93S MONTPELIER PTSUNNY 69 53 56 SW7 30.00S BURLINGTON MOSUNNY 73 56 54 VRB6 29.95S $$ MAZ007-012-024-CTZ003-RIZ002-NYZ038-NYZ072-221600- SOUTHERN NEW ENGLAND AND NY CITY SKY/WX TMP DP RH WIND PRES REMARKS BOSTON MOSUNNY 74 56 53 SE8 29.95F WORCESTER SUNNY 72 49 44 W13 29.98F NANTUCKET SUNNY 73 59 61 S7 29.98F PROVIDENCE MOSUNNY 77 53 43 VRB3 29.97F HARTFORD MOSUNNY 77 53 43 NW8 29.98F ALBANY MOSUNNY 74 55 51 VRB5 30.00S NEW YORK CITY PTSUNNY 78 55 44 NE8 29.99F $$ ANZ081-ANZ082-ANZ150-NHZ014-MEZ023>029-221600- COASTAL MARINE OBSERVATIONS STATION/POSITION TIME TEMP WIND PRES WAVE AIR SEA DIR/SP/G HT/PER (UTC) (F) (DEG/KT/KT) (MB) (FT/S) MATINICUS ROCK 1400 59 250/ 16/ 17 1012.9R ISLE OF SHOALS 1400 68 240/ 7/ 7 1014.4F JEFFREYS LEDGE 1406 59 N/A 2/ 7 CASHES LEDGE BUO 1350 65 58 1014.1 2/ 7 GEORGES BANK BUO 1350 55 53 1014.3 3/ 6 $$ .............KEY.............. WCI - WIND CHILL TC - TEMPERATURE IN CELSIUS VSB - VISIBILITY IN MILES HX - HEAT INDEX FAIR- INDICATES FEW OR NO CLOUDS BELOW 12,000 FT, WITH NO SIGNIFICANT WEATHER AND/OR OBSTRUCTIONS TO VISIBILITY.

USA.gov is the U.S. government's official web portal to all federal, state and local government web resources and services.